map of FLR home
FLR - Airport
Location
City:  Florence, Tuscany, Italy
Near (Alt.):Firenze
Name:Peretola
Old (Alt.):Amerigo Vespucci
ICAO:LIRQ
IATA:FLR

Details
Type:Airport (Aerodrome, Airfield)
Use:Public/Civil
Latitude:4348'36"N (43.809953)
Longitude:1112'18"E (11.205100)
Datum:WGS 1984
Elevation:142 ft (43 m)
Variation:3.17E (WMM2015v2 magnetic declination)
0.14 annual change
Runways:1
Longest:5425 × 98 ft (1654 × 30 m), paved

Time
Time Zone:UTC+1 (DST+2)
Local Time:

Weather
METAR:LIRQ 041350Z VRB05KT 9999 SCT040 11/03 Q1022
TAF:LIRQ 041100Z 0412/0512 04010KT 9999 SCT040

Related Locations
Nearby:
Farthest:CHT: 12058 mi / 19405 km
Waitangi [Tuuta], CIT, NZ

Find:

   beyond  
but within

Other Information
Maps:
NOTAMs:
Links:
Sources:

  
  • flag of Italy
  • flag of Tuscany
  • flag of Florence
  

Sectional Chart

Flight Planning
at skyvector.com

Satellite Image

Google Maps Satellite view

 

Copyright © 2004-2019 Karl L. Swartz. All rights reserved.
The Great Circle Mapper name and logo are trademarks of the Great Circle Mapper.
All other trademarks mentioned herein belong to their respective owners.
Please see credits for attibutions and further copyright information.

  Follow gcmap on Facebook Follow gcmap on Twitter GCmap on LinkedIn

hCard Microformat

Geo Microformat